ATLAS 5 CENTAUR DEB, 50214

Orbit data source: Space-Track

ATLAS 5 CENTAUR DEB, 50214 is space debris in GEO originally from a launch on Tue, 07 Dec 2021 UTC launched from the Air Force Eastern Test Range (AFETR). Debris objects in space refer to the collection of defunct objects orbiting the Earth. Examples of debris include non-operational satellites, rocket bodies, and fragments generated from explosions, collisions, or faulty payload assembly.

Not visible in the next 10 days
Identifier
50214, 2021-118D
Orbit
GEO
Country
Flag of USUS
Related business
Manufacturer
NGIS/HARRL3?
Mission
Spacecraft
Bus & Motor
ESPASAT, Unknown motor
Mass
~100 kg wet, 80 kg dry
Launch date (UTC)
2021-12-07 (5 years ago)
Launch vehicle
Unknown
Launch site
Air Force Eastern Test Range (AFETR)
Object type
Payload
Rocket body
Debris
Shape & HBR
Unknown shape, 1.1 m
Radar Cross Section
0.600 m², Large (>1 m²)

Expand to show TLE details & history
Last TLE update: 3 days ago

TLE from 3 days ago
0 ATLAS 5 CENTAUR DEB
1 50214U 21118D   26170.30011349  .00000095  00000-0  00000-0 0  9996
2 50214   4.3212  77.3972 0012442  57.4667 302.3870  0.99325596 16445
Epoch: 2026-06-19T07:12Z
TLE epoch observation values (Epoch: 2026-06-19T07:12:09.805Z)
Latitude
0.00001°
Longitude
61.57453°
Altitude
36,024.987 km
Speed
3.067 km/s
True Right ascension
05h 08m 35s
True Declination
0° 00' 00"
Sunlit
Object was in daylight at epoch
Visualization orbit readout
Latitude
Unknown
Longitude
Unknown
Altitude
Unknown
Speed
Unknown
Apparent Right ascension
Unknown
Apparent Declination
Unknown
Sunlit
N/A
Visualization observer readout
Local Sidereal Time
22:00:15
Azimuth
Unknown
Elevation
Unknown
Doppler factor
Unknown
Orbital elements
Apogee altitude
36,107.8 km
Perigee altitude
36,002.209 km
Semi-major axis
42,433.142 km
Eccentricity
0.00124
Inclination
4.3212°
RAAN
77.3972°
Arg. of periapsis
57.4667°
True anomaly
302.2665°
Mean anomaly
302.387°
Eccentric anomaly
302.32676°
Mean motion
0.2483 °/min
Orbital period
1,449.83 mins
BSTAR
0
Loading maneuver chart data...
Computing Atmospheric mass density...
Loading historical data...
Loading historical data...
Loading historical data...
Loading historical data...
Loading historical data...
Loading historical data...
Loading historical data...
Other satellites on launch #118 in the year 2021 (2021-12-07 UTC)

Documentation

Showing up to 5 results
|